www.pogodaiklimat.ru

Погода и климат >> Архив погоды >> Япония >> Иродзаки


ПОГОДА в Иродзаки

  • Прогноз погоды в Иродзаки
  • Монитор погоды в Иродзаки

АРХИВ ПОГОДЫ в Иродзаки

Время (UTC), дата Ветер
(напр.,м/с)
 
Видим.   Явления Облачность Т
(С)
Тd
(С)
f
(%)
Тe
(С)
Тes
(С)
Комфортность P
(гПа)
Po
(гПа)
Тmin
(С)
Tmax
(С)
R
(мм)
R24
(мм)
S
(см)
06 19.08 В 3 5000 м дымка н/о +28.6 +26.4 88 +44 +44 опасность
перегрева
1010.2 1004.2
09 19.08 В 2 6000 м дымка н/о +27.2 +25.4 90 +40 +40 очень
душно
1010.8 1004.8
10 19.08 СВ 2 4900 м дымка н/о +26.7 +25.7 94 +39 +39 очень
душно
1011.4 1005.4
11 19.08 СВ 2 4800 м дымка н/о +26.6 +25.9 96 +40 +40 очень
душно
1011.8 1005.8
12 19.08 СВ 2 4800 м дымка н/о +26.5 +25.8 96 +39 +39 очень
душно
1012.2 1006.1 +29.4
13 19.08 СВ 2 5000 м дымка н/о +26.2 +25.5 96 +38 +38 очень
душно
1011.9 1005.8
14 19.08 В 5 4100 м дымка н/о +26.2 +25.5 96 +38 +38 очень
душно
1010.9 1004.8
15 19.08 СВ 2 3700 м дымка н/о +26.3 +25.8 97 +39 +39 очень
душно
1011.5 1005.4
16 19.08 СВ 3 4300 м дымка н/о +26.1 +25.4 96 +38 +38 очень
душно
1011.5 1005.4
17 19.08 СВ 2 4000 м дымка н/о +26.0 +25.5 97 +38 +38 очень
душно
1011.6 1005.5
18 19.08 В 3 5000 м дымка н/о +25.9 +24.9 94 +37 +37 очень
душно
1011.5 1005.4
19 19.08 СВ 2 5000 м дымка н/о +25.8 +24.8 94 +37 +37 очень
душно
1011.5 1005.4
20 19.08 СВ 2 5000 м дымка н/о +26.1 +24.9 93 +37 +37 очень
душно
1011.4 1005.3
21 19.08 СВ 2 6000 м дымка н/о +26.4 +25.0 92 +38 +38 очень
душно
1011.2 1005.2
22 19.08 В 3 7000 м дымка н/о +27.1 +24.9 88 +39 +39 очень
душно
1011.5 1005.5
23 19.08 В 2 8000 м дымка н/о +28.1 +24.7 82 +40 +40 очень
душно
1011.4 1005.4
00 20.08 В 1 8000 м дымка н/о +28.4 +25.4 84 +42 +42 опасность
перегрева
1011.6 1005.6 +25.8
01 20.08 ЮЗ 2 7000 м дымка н/о +29.0 +26.2 85 +44 +44 опасность
перегрева
1011.3 1005.3
02 20.08 ЮЗ 2 7000 м дымка н/о +29.4 +26.4 84 +45 +45 опасность
перегрева
1011.0 1005.0
03 20.08 ЮЗ 3 8000 м дымка н/о +30.4 +26.6 80 +47 +47 опасность
перегрева
1010.4 1004.4
04 20.08 ЮЗ 4 8000 м дымка н/о +30.8 +26.3 77 +47 +47 опасность
перегрева
1009.9 1004.0
05 20.08 ЮЗ 4 8000 м дымка н/о +30.3 +26.3 79 +46 +46 опасность
перегрева
1009.5 1003.5
06 20.08 ЮЗ 5 10 км н/о +29.6 +26.8 85 +46 +46 опасность
перегрева
1009.3 1003.3
07 20.08 ЮЗ 5 20 км н/о +29.9 +27.3 86 +48 +48 опасность
перегрева
1009.5 1003.5
08 20.08 З 6 20 км н/о +28.5 +26.7 90 +44 +44 опасность
перегрева
1009.1 1003.1
09 20.08 ЮЗ 7 16 км н/о +28.0 +26.6 92 +43 +43 опасность
перегрева
1009.0 1003.0
10 20.08 З 5 17 км н/о +27.7 +26.1 91 +42 +42 опасность
перегрева
1009.2 1003.2
11 20.08 З 5 14 км н/о +27.9 +26.7 93 +43 +43 опасность
перегрева
1009.6 1003.6
12 20.08 З 5 12 км н/о +27.9 +27.0 95 +44 +44 опасность
перегрева
1009.8 1003.8 +31.3
13 20.08 З 4 11 км н/о +27.8 +26.9 95 +44 +44 опасность
перегрева
1009.7 1003.7
14 20.08 З 4 13 км н/о +27.6 +26.6 94 +42 +42 опасность
перегрева
1009.4 1003.4
15 20.08 З 2 10 км н/о +27.5 +26.6 95 +42 +42 опасность
перегрева
1009.1 1003.1
16 20.08 СЗ 2 10 км н/о +27.0 +26.1 95 +41 +41 опасность
перегрева
1008.9 1002.9
17 20.08 В 3 12 км н/о +26.2 +25.2 94 +38 +38 очень
душно
1008.9 1002.9
18 20.08 В 3 15 км н/о +26.0 +24.8 93 +37 +37 очень
душно
1008.8 1002.8
20 20.08 В 3 17 км н/о +25.8 +24.6 93 +36 +36 очень
душно
1009.0 1003.0
22 20.08 В 3 18 км н/о +26.7 +24.6 88 +38 +38 очень
душно
1009.9 1003.9
23 20.08 В 6 20 км н/о +26.5 +24.2 87 +37 +37 очень
душно
1010.1 1004.1
00 21.08 В 6 20 км н/о +27.3 +24.8 86 +39 +39 очень
душно
1010.5 1004.5 +25.7
01 21.08 В 6 20 км н/о +28.2 +24.6 81 +40 +40 очень
душно
1010.5 1004.5
02 21.08 В 5 20 км н/о +28.3 +25.3 84 +41 +41 опасность
перегрева
1010.2 1004.2
03 21.08 В 4 19 км н/о +28.5 +25.1 82 +41 +41 опасность
перегрева
1009.9 1003.9
05 21.08 В 4 17 км н/о +28.5 +25.5 84 +42 +42 опасность
перегрева
1009.4 1003.4
06 21.08 В 3 12 км н/о +28.8 +26.2 86 +44 +44 опасность
перегрева
1009.2 1003.2
07 21.08 В 2 14 км н/о +27.9 +25.5 87 +41 +41 опасность
перегрева
1009.1 1003.1
09 21.08 СВ 1 12 км н/о +27.4 +26.0 92 +41 +41 опасность
перегрева
1009.3 1003.3
10 21.08 СВ 1 11 км н/о +27.1 +26.1 94 +41 +41 опасность
перегрева
1009.7 1003.7
11 21.08 ЮВ 1 11 км н/о +27.0 +26.1 95 +41 +41 опасность
перегрева
1010.1 1004.1
12 21.08 ЮЗ 2 10 км н/о +27.1 +26.4 96 +41 +41 опасность
перегрева
1010.3 1004.3 +29.1
13 21.08 ЮЗ 3 11 км н/о +27.4 +26.7 96 +42 +42 опасность
перегрева
1010.1 1004.1
15 21.08 ЮЗ 6 10 км н/о +27.5 +26.8 96 +43 +43 опасность
перегрева
1009.1 1003.1
16 21.08 З 4 11 км н/о +27.4 +26.5 95 +42 +42 опасность
перегрева
1008.5 1002.5
17 21.08 З 4 11 км н/о +27.6 +26.9 96 +43 +43 опасность
перегрева
1007.9 1001.9
18 21.08 З 5 10 км н/о +27.5 +26.8 96 +43 +43 опасность
перегрева
1007.9 1001.9
19 21.08 З 5 10 км н/о +27.6 +26.7 95 +43 +43 опасность
перегрева
1007.5 1001.5
20 21.08 З 6 10 км н/о +27.5 +26.3 93 +42 +42 опасность
перегрева
1007.4 1001.4
22 21.08 С 2 18 км н/о +28.3 +25.5 85 +42 +42 опасность
перегрева
1009.5 1003.5
23 21.08 В 3 15 км н/о +26.7 +24.6 88 +38 +38 очень
душно
1010.2 1004.2
00 22.08 В 5 19 км н/о +26.8 +24.8 89 +38 +38 очень
душно
1010.4 1004.4 +26.6
01 22.08 В 5 20 км н/о +26.8 +24.7 88 +38 +38 очень
душно
1010.5 1004.5
02 22.08 В 4 20 км н/о +26.8 +24.5 87 +38 +38 очень
душно
1010.2 1004.2
04 22.08 В 5 11 км н/о +26.8 +24.7 88 +38 +38 очень
душно
1009.6 1003.6
05 22.08 В 5 13 км н/о +27.7 +24.8 84 +39 +39 очень
душно
1009.4 1003.4
06 22.08 В 4 15 км н/о +27.3 +24.6 85 +39 +39 очень
душно
1009.1 1003.1
07 22.08 В 4 18 км н/о +27.4 +24.5 84 +39 +39 очень
душно
1009.3 1003.3
08 22.08 В 3 19 км н/о +27.4 +24.9 86 +39 +39 очень
душно
1009.3 1003.3
09 22.08 В 2 16 км н/о +26.6 +24.5 88 +37 +37 очень
душно
1009.8 1003.8
11 22.08 СВ 2 11 км н/о +26.1 +24.7 92 +37 +37 очень
душно
1010.2 1004.2
12 22.08 С 1 10 км н/о +26.3 +25.1 93 +38 +38 очень
душно
1010.3 1004.3 +28.3
13 22.08 ЮЗ 5 15 км н/о +26.8 +25.6 93 +39 +39 очень
душно
1010.5 1004.5
14 22.08 ЮЗ 7 20 км н/о +27.3 +25.5 90 +40 +40 очень
душно
1009.9 1003.9
15 22.08 ЮЗ 9 20 км н/о +27.4 +25.4 89 +40 +40 очень
душно
1009.4 1003.4
16 22.08 ЮЗ 9 20 км н/о +27.4 +25.6 90 +40 +40 очень
душно
1008.7 1002.7
17 22.08 ЮЗ 7 5000 м слаб. дождь н/о +27.3 +26.4 95 +42 +42 опасность
перегрева
1007.9 1001.9
18 22.08 ЮЗ 8 12 км в посл. час дождь н/о +27.1 +26.2 95 +41 +41 опасность
перегрева
1006.9 1000.9 0.0
19 22.08 ЮЗ 10 13 км н/о +27.2 +26.2 94 +41 +41 опасность
перегрева
1006.6 1000.6
20 22.08 ЮЗ 11 20 км н/о +27.2 +25.4 90 +40 +40 очень
душно
1006.7 1000.7
21 22.08 ЮЗ 10 12 км н/о +27.5 +26.3 93 +42 +42 опасность
перегрева
1006.4 1000.4
22 22.08 ЮЗ 11 12 км н/о +27.6 +26.4 93 +42 +42 опасность
перегрева
1006.4 1000.4
23 22.08 ЮЗ 13 7000 м слаб. дождь н/о +27.3 +26.6 96 +42 +42 опасность
перегрева
1006.8 1000.8
00 23.08 ЮЗ 11 2200 м дождь н/о +25.7 +25.4 98 +37 +37 очень
душно
1006.9 1000.9 +25.6 2
01 23.08 З 7 6000 м слаб. дождь н/о +26.6 +26.3 98 +40 +40 очень
душно
1007.0 1001.0
02 23.08 З 8 11 км слаб. дождь н/о +26.2 +24.6 91 +37 +37 очень
душно
1006.8 1000.8
03 23.08 З 6 12 км в посл. час дождь н/о +27.5 +25.9 91 +41 +41 опасность
перегрева
1006.5 1000.5
04 23.08 ЮЗ 10 12 км слаб. дождь н/о +26.5 +25.3 93 +38 +38 очень
душно
1006.5 1000.5
05 23.08 ЮЗ 9 12 км слаб. дождь н/о +26.0 +24.8 93 +37 +37 очень
душно
1006.4 1000.4
06 23.08 З 6 5000 м слаб. дождь н/о +25.4 +24.0 92 +35 +35 очень
душно
1006.7 1000.7 2
07 23.08 З 5 13 км в посл. час дождь н/о +24.7 +23.3 92 +33 +33 очень
душно
1006.9 1000.8
08 23.08 З 5 19 км н/о +26.3 +23.6 85 +36 +36 очень
душно
1006.6 1000.6
09 23.08 З 5 20 км {дождь} н/о +26.0 +22.7 82 +34 +34 очень
душно
1006.9 1000.9
11 23.08 З 7 20 км н/о +25.8 +22.7 83 +34 +34 очень
душно
1007.9 1001.9
13 23.08 З 6 20 км н/о +25.9 +21.8 78 +33 +33 очень
душно
1008.1 1002.1
14 23.08 З 6 20 км н/о +25.9 +22.2 80 +34 +34 очень
душно
1008.0 1002.0
15 23.08 З 7 16 км н/о +25.8 +23.1 85 +34 +34 очень
душно
1007.8 1001.8
16 23.08 ЮЗ 9 16 км н/о +25.6 +22.9 85 +34 +34 очень
душно
1007.4 1001.4
17 23.08 З 7 16 км н/о +25.7 +22.4 82 +34 +34 очень
душно
1007.6 1001.6
18 23.08 З 6 15 км слаб. дождь н/о +25.6 +22.9 85 +34 +34 очень
душно
1007.8 1001.8 0.0
19 23.08 З 6 17 км слаб. дождь н/о +25.8 +22.9 84 +34 +34 очень
душно
1008.0 1002.0
20 23.08 З 5 19 км слаб. дождь н/о +25.8 +22.3 81 +34 +34 очень
душно
1008.2 1002.2
21 23.08 ЮЗ 11 20 км слаб. дождь н/о +25.1 +21.8 82 +32 +32 очень
душно
1008.9 1002.8
22 23.08 З 8 7000 м слаб. дождь н/о +24.1 +22.0 88 +31 +31 очень
душно
1009.2 1003.1
23 23.08 З 5 11 км слаб. дождь н/о +23.6 +21.3 87 +30 +30 очень
душно
1009.3 1003.2
00 24.08 З 6 13 км слаб. дождь н/о +24.7 +21.6 83 +32 +32 очень
душно
1009.8 1003.7 +23.5 2
02 24.08 ЮЗ 9 19 км в посл. час дождь н/о +26.1 +22.2 79 +34 +34 очень
душно
1009.2 1003.2
03 24.08 ЮЗ 10 16 км {дождь} н/о +26.3 +23.2 83 +35 +35 очень
душно
1008.9 1002.9
04 24.08 ЮЗ 10 17 км н/о +27.7 +23.9 80 +38 +38 очень
душно
1008.3 1002.3
05 24.08 ЮЗ 9 20 км н/о +27.4 +23.6 80 +37 +37 очень
душно
1008.1 1002.1
06 24.08 ЮЗ 11 17 км {дождь} н/о +27.4 +24.1 82 +38 +38 очень
душно
1008.2 1002.2 0.5
08 24.08 ЮЗ 10 14 км н/о +26.4 +24.1 87 +37 +37 очень
душно
1008.4 1002.4
09 24.08 З 8 12 км н/о +26.1 +24.3 90 +36 +36 очень
душно
1008.5 1002.5
10 24.08 ЮЗ 13 12 км н/о +26.1 +24.5 91 +37 +37 очень
душно
1008.3 1002.3
11 24.08 З 8 11 км н/о +26.3 +24.2 88 +37 +37 очень
душно
1009.1 1003.1
12 24.08 З 7 10 км н/о +26.3 +24.5 90 +37 +37 очень
душно
1009.0 1003.0 +28.0 0.5
13 24.08 З 6 9000 м дымка н/о +26.3 +24.9 92 +38 +38 очень
душно
1009.0 1003.0
14 24.08 З 5 10 км н/о +26.2 +24.4 90 +37 +37 очень
душно
1008.9 1002.9
15 24.08 З 7 11 км н/о +25.9 +23.0 84 +35 +35 очень
душно
1008.7 1002.7
16 24.08 З 7 15 км н/о +26.2 +22.1 78 +34 +34 очень
душно
1008.4 1002.4
18 24.08 З 6 12 км н/о +25.8 +22.7 83 +34 +34 очень
душно
1008.3 1002.3
19 24.08 З 7 12 км н/о +25.5 +22.8 85 +34 +34 очень
душно
1008.5 1002.4
20 24.08 З 5 12 км н/о +25.2 +22.3 84 +33 +33 очень
душно
1009.3 1003.2
21 24.08 З 5 11 км н/о +25.2 +21.9 82 +32 +32 очень
душно
1009.5 1003.4
22 24.08 В 1 12 км н/о +24.7 +22.0 85 +32 +32 очень
душно
1010.0 1003.9
23 24.08 В 4 14 км н/о +24.9 +22.6 87 +33 +33 очень
душно
1010.2 1004.1
00 25.08 В 6 12 км н/о +24.7 +21.8 84 +32 +32 очень
душно
1010.4 1004.3 +24.4
01 25.08 В 4 13 км н/о +25.4 +22.5 84 +33 +33 очень
душно
1010.6 1004.5
02 25.08 В 4 15 км н/о +25.5 +21.6 79 +33 +33 очень
душно
1010.5 1004.4
03 25.08 В 4 12 км н/о +25.9 +22.0 79 +33 +33 очень
душно
1010.3 1004.2
04 25.08 В 4 11 км н/о +26.0 +22.3 80 +34 +34 очень
душно
1010.0 1003.9
05 25.08 В 3 13 км н/о +26.3 +22.4 79 +34 +34 очень
душно
1009.8 1003.8
07 25.08 В 2 12 км н/о +26.4 +22.5 79 +35 +35 очень
душно
1010.1 1004.1
08 25.08 В 2 8000 м дымка н/о +25.8 +22.9 84 +34 +34 очень
душно
1010.4 1004.3
09 25.08 С 2 11 км н/о +25.3 +23.0 87 +34 +34 очень
душно
1010.2 1004.1
10 25.08 З 4 10 км н/о +26.2 +22.5 80 +34 +34 очень
душно
1010.1 1004.1
11 25.08 З 3 7000 м дымка н/о +26.1 +23.6 86 +35 +35 очень
душно
1010.8 1004.7
12 25.08 З 4 9000 м дымка н/о +25.8 +23.1 85 +34 +34 очень
душно
1010.9 1004.8 +27.1

 

Местоположение метеостанции Иродзаки (Япония): широта 34.60 долгота 138.85 высота над уровнем моря 56 м.

В архиве по умолчанию представлена погода в Иродзаки за последнюю неделю. Архивные данные за месяц целиком и за предыдущие месяцы, начиная с января 2011 года, Вы можете получить, выбрав интересующий диапазон дат из раскрывающегося списка и нажав кнопку "Ввод!".


*Определитесь, кто Вы:
робот инопланетянин человек

Внимание! Время в таблицах - всемирное. Для получения местного времени необходимо прибавить поправку, которая равна 9 ч.

Смотрите также архив погоды в соседних городах и на ближайших метеорологических станциях:

Погода на Осиме (Япония) (51 км)
Погода в Аджиро (Япония) (55 км)
Погода в Мисиме (Япония) (58 км)
Погода в Омаэдзаки (Япония) (59 км)
Погода в Сидзуоке (Япония) (59 км)
Погода на Миякедзиме (Япония) (81 км)
Погода на Фудзияме (Япония) (86 км)
Погода на Озере Кавагучи (Япония) (100 км)
Погода в Татеяме (Япония) (101 км)
Погода в Хамамацу (Япония) (105 км)

Пояснения к столбцам:

Ветер - указаны скорость ветра в м/с - средняя за 10 мин, порывы в срок и между сроками (в фигурных скобках) и направление, откуда дует ветер: С - северный, СВ - северо-восточный, В - восточный, ЮВ - юго-восточный, Ю - южный, ЮЗ - юго-западный, З - западный, СЗ - северо-западный.
Видимость - горизонтальная дальность видимости в метрах или километрах. При видимости от 1 до 10 км при отсутствии осадков обычно наблюдается дымка, при ухудшении видимости до 1 км и менее - туман. В сухую погоду видимость может ухудшаться дымом, пылью или мглою.
Явления - указаны атмосферные явления, наблюдавшиеся в срок или в последний час перед сроком; фигурными скобками обозначены явления, наблюдавшиеся между сроками (за 1-3 часа до срока); квадратными скобками обозначены град или гололедные отложения с указанием их диаметра в мм.
Облачность - указаны через наклонную черту общая и нижняя облачность в баллах и высота нижней границы облаков в метрах; квадратными скобками обозначены формы облаков: Ci - перистые, Cs - перисто-слоистые, Cc - перисто-кучевые, Ac - высококучевые, As - высокослоистые, Sc - слоисто-кучевые, Ns - слоисто-дождевые, Cu - кучевые, Cb - кучево-дождевые. Подробнее классификацию облаков см. в Атласе облаков (PDF).
T - Температура воздуха - температура, измеренная на высоте 2 м над землей.
Td - Температура точки росы - температура, при понижении до которой содержащийся в воздухе водяной пар достигнет насыщения.
f - Относительная влажность воздуха - влажноcть воздуха, измеренная на высоте 2 м над землей.
Te - Эффективная температура - температура, которую ощущает одетый по сезону человек в тени. Характеристика душности погоды. При расчете учитывается влияние влажности воздуха и скорости ветра на теплоощущения человека.
Tes - Эффективная температура на солнце - температура, которую ощущает человек, с поправкой на солнечный нагрев. Характеристика знойности погоды. Зависит от высоты солнца над горизонтом, облачности и скорости ветра. Ночью, в пасмурную погоду, а также при ветре 12 м/с и более поправка равна нулю.
P - Атмосферное давление - приведенное к уровню моря атмосферное давление.
Po - Атмосферное давление - измеренное на уровне метеостанции атмосферное давление.
Tmin - Минимальная температура - минимум температуры воздуха на высоте 2 м над землей.
Tmax - Максимальная температура - максимум температуры воздуха на высоте 2 м над землей.
R - Количество осадков - Количество выпавших осадков за период времени, мм. При наведении курсора мыши на число - период времени, за который выпало указанное количество осадков.
R24 - Количество осадков - Количество выпавших осадков за 24 часа, мм.
S - Снежный покров - Высота снежного покрова, см. При наведении курсора мыши на число - состояние снежного покрова и степень покрытия местности в баллах.